GFSNIL_prec_radar_198.txt.gz
Reflectivity
28 24 -2 -19 -1 -10 15 8 -20 -20 7 -20 -7 3 30 18 -20 -20 -0 -3 0 -20
46 40 15 -20 -20 -14 19 14 -12 11 4 -3 16 14 5 10 8 -13 -8 8 -20 -18
-5 23 3 13 6 -20 -20 2 7 12 -9 6 29 22 19 19 18 -4 -8 7 14 7
21 19 36 15 -14 11 14 5 16 27 -5 21 13 32 35 24 34 30 34 26 40 29
26 32 22 15 18 6 -2 0 5 1 21 13 18 17 23 25 20 33 31 36 26 23
9 25 32 29 16 19 -0 15 4 32 4 28 31 34 34 25 27 26 25 29 25 27
-19 -7 13 26 25 27 25 34 31 16 23 29 34 21 31 27 21 28 23 13 14 11
-20 -20 -19 -6 9 20 22 30 32 28 26 24 24 19 10 14 7 2 3 0 1 6
-20 -20 -13 5 16 21 24 29 29 26 22 1 6 15 5 -20 -20 -20 3 12 -7 -20
-20 -8 10 -15 -4 14 24 27 25 19 8 -8 2 -4 -2 -8 -13 -20 -18 -20 -20 -20
-20 -20 -20 -20 -20 5 2 -3 2 2 2 -3 0 -7 -7 -10 1 -20 -20 -17 -20 -14
-20 -20 -20 -20 -3 7 6 8 5 9 -1 -0 -14 -20 -9 -8 -10 -20 -17 -8 -8 -19
-20 -20 -12 -9 3 4 4 2 14 15 -9 -17 -20 -20 -20 -19 -7 -20 -20 -17 2 4
-20 -20 -11 15 19 -2 -7 4 7 14 14 4 -6 -18 -14 11 3 2 -2 1 5 3

GFSNIL_prec_radar_201.txt.gz
Reflectivity
9 15 13 12 27 23 13 35 25 27 20 -19 -2 13 7 8 -1 -19 -20 -20 -8 -20
-6 21 13 -0 17 33 30 42 46 41 19 -15 -3 14 27 29 8 12 21 28 7 18
-10 23 19 35 42 35 31 36 35 24 25 9 -9 16 14 31 19 25 17 31 33 31
-20 -19 29 21 40 39 29 22 31 12 26 36 -4 -3 -0 -1 10 20 28 30 31 19
-20 -20 -20 -9 30 27 31 33 32 28 35 30 1 5 24 28 5 4 15 27 19 3
-20 -13 9 -5 6 -12 9 33 28 39 35 28 13 26 25 6 12 15 6 14 25 29
-19 -10 16 -3 22 15 16 25 28 32 35 29 36 32 13 -17 -12 -5 -2 14 23 29
-20 0 13 21 15 4 15 31 34 32 27 38 31 15 -19 -14 -3 -8 -4 -11 -10 5
-16 3 20 18 -2 5 12 16 27 25 24 21 12 13 7 -3 -15 1 -18 -20 -20 -20
-20 -17 -2 12 8 9 9 12 9 8 10 -8 5 1 -11 -16 -19 -20 -20 -20 -20 -20
-5 -8 -0 13 17 17 16 17 2 -2 9 11 -4 -15 -20 -20 -20 -20 -20 -19 -19 -20
-20 -20 -20 -20 -11 11 -1 -3 -11 -20 -20 -20 -18 -8 1 -19 -20 -20 -20 -20 -18 -20
-20 -20 -20 -20 -20 -13 -3 5 -1 4 6 -18 -20 -20 -20 -20 -20 -20 -20 -20 -20 -20
-15 7 3 -14 -8 6 0 -16 -7 4 4 0 -17 -20 -20 -20 -20 -20 1 -14 -20 -20

GFSNIL_prec_radar_204.txt.gz
Reflectivity
-20 -20 -18 -20 -20 -19 3 16 12 15 11 19 23 20 37 36 45 25 25 10 -19 -15
-20 -20 -20 -20 -20 -17 -14 -20 18 20 27 32 34 45 35 20 34 37 29 24 8 -18
-20 -20 -18 -20 -20 -10 -20 2 -0 15 26 28 25 36 28 23 33 20 20 21 28 27
-20 -20 -20 -1 -20 -20 -15 -1 -20 -20 -2 10 22 33 35 36 36 38 37 37 35 30
-20 -20 -20 -20 -20 -15 -4 -2 -20 -12 19 19 25 30 28 31 35 38 37 30 31 23
-20 -20 -12 8 -16 -20 -8 19 -9 17 -2 3 22 17 21 32 35 39 33 24 17 -12
-20 -20 -19 8 16 13 9 11 31 14 16 9 16 35 37 34 32 34 28 -6 -9 -7
-20 -20 -20 -19 -6 21 29 31 34 38 33 34 38 36 34 32 32 30 23 7 -10 -8
-20 -19 -1 4 5 18 11 20 31 43 37 39 40 35 34 36 18 7 -17 -20 -20 -20
13 24 11 10 8 24 27 28 32 33 27 28 27 33 28 12 3 -20 -20 -20 -20 -20
-2 -20 -16 -17 8 14 29 24 29 26 24 24 20 12 4 -9 -11 -20 -20 -20 -20 -20
-20 -20 -20 -20 -17 3 7 3 4 4 -6 10 10 -2 -2 -18 -20 -20 -20 -20 -20 -20
-20 -20 -20 -20 -13 -12 -9 -2 -3 -16 -20 -16 -16 8 -20 -20 -20 -20 -20 -20 -20 -20
-0 11 5 11 7 -10 -12 -5 -5 -16 -20 -20 -20 -15 -12 -4 5 2 -17 -20 -20 -20

GFSNIL_prec_radar_207.txt.gz
Reflectivity
-20 -20 -20 -20 -20 -20 -20 -20 -20 -20 -20 -12 6 18 15 -15 -11 26 7 25 12 27
-20 -20 -8 -20 -20 -20 -20 -20 -20 -20 -19 -20 10 15 -1 3 10 22 33 30 26 28
-20 -20 -14 -17 -20 -20 -20 -20 -20 -20 -20 -20 -18 8 -4 12 14 27 29 24 23 15
-20 -20 -20 -20 -20 -20 -20 -14 -19 -19 3 -20 -16 -4 -20 -20 -17 0 4 17 -2 11
-20 -20 -20 -20 -20 -20 -19 -7 6 16 22 24 7 21 5 -13 0 17 16 -8 7 21
-20 -20 -20 -20 -20 -20 -20 -20 4 21 25 20 35 29 24 31 31 25 34 28 17 5
-20 -20 -20 -20 -20 -20 -20 -20 -20 13 15 29 25 23 15 26 37 27 30 29 13 15
-20 -20 -20 -20 -20 -20 -20 -20 13 22 20 23 31 30 37 35 32 36 34 35 31 30
-14 -20 -20 -20 -20 -20 -20 -16 -13 7 35 38 34 37 32 36 40 35 33 36 34 35
-19 -20 -20 -8 -1 1 -8 21 18 22 29 35 39 39 34 31 38 33 25 26 32 24
-20 -18 -5 -17 -20 -20 -12 5 14 21 17 28 33 28 32 35 26 20 22 20 18 10
2 20 -20 -20 -20 -18 -9 -2 9 10 18 16 28 28 25 12 9 10 11 10 5 -3
3 -6 -15 -20 -20 -20 -8 -9 -20 -19 -12 10 -2 -10 -14 -8 -19 -6 -5 -12 -20 -19
-16 -20 -20 -20 -3 -7 -18 -20 -20 -20 -20 -10 -11 -20 -20 -20 -20 -20 -20 -20 -20 -20

GFSNIL_prec_radar_213.txt.gz
Reflectivity
-20 -20 -20 -20 -20 -20 -20 -20 -20 -16 12 13 6 -0 -20 -4 22 21 27 22 21 13
-20 -20 -20 -20 -20 -20 -20 -20 -20 -20 -20 0 13 9 0 -18 -20 -18 14 24 28 27
-20 -20 -20 -20 -20 -20 -20 -20 -20 -20 -20 -4 2 3 6 -19 -20 -20 -20 -10 7 23
-20 -20 -20 -20 -20 -20 -20 -20 -20 -9 -7 -15 -3 -7 -20 -20 -20 -20 -14 0 26 23
-20 -20 -20 -20 -20 -16 -13 -20 -20 -20 -20 -11 3 2 -20 -20 -20 -20 -20 -18 13 25
-20 -20 -20 -20 -20 -20 -20 -20 -20 -20 -20 -20 -20 -0 -16 -20 4 11 3 9 10 13
-20 -20 -20 -20 -14 -20 -20 -20 -20 -20 -17 -17 -12 -2 -8 -9 -20 -20 -14 5 18 17
-20 -20 -20 -20 -20 -20 -20 -20 -20 -20 -20 -11 -20 -20 -20 -20 -19 1 10 9 25 22
-20 -20 -20 -20 -20 -20 -20 -20 -20 -20 -20 -2 -20 -5 -18 -0 10 17 24 23 27 35
-20 -20 -19 -20 -20 -20 -20 -20 -20 -11 -2 -20 -20 -20 -20 12 22 27 32 32 33 28
-8 -20 -20 -20 -20 -20 -20 -20 -20 -14 -20 -20 -20 -20 -15 18 28 30 35 39 36 30
-2 -0 -11 -20 -20 -20 -20 -20 -20 -20 -14 -20 -9 -20 -20 -19 2 24 31 30 32 32
16 26 29 21 -20 -18 -20 -20 -20 -20 -5 2 -4 -20 -20 -20 -19 -20 -4 8 26 20
19 31 22 2 -5 -8 -15 -20 -20 -20 -9 -20 -20 -16 -20 -4 -15 -4 -18 -20 -10 -6

GFSNIL_prec_radar_216.txt.gz
Reflectivity
-20 -20 -20 -20 -20 -20 -20 -20 -20 -20 -19 -16 6 14 14 8 8 -5 0 10 6 8
-20 -20 -20 -20 -20 -20 -20 -20 -20 -20 -20 -20 -20 -20 -20 9 5 8 -15 7 13 24
-20 -20 -20 -20 -20 -20 -20 -20 -20 -20 -20 -20 -20 -20 -20 -20 0 10 10 -3 5 9
-20 -20 -20 -20 -20 -20 -20 -20 -20 -20 -20 -19 -10 -20 -20 -3 -6 -1 -3 5 4 -0
-20 -20 -20 -20 -20 -20 -20 -20 -20 -20 -20 -20 -19 -20 -20 -10 -12 -11 -4 -2 6 -4
-20 -20 -20 -20 -20 -20 -20 -20 -18 -20 -20 -20 -20 -20 -20 -20 -20 -17 -2 -16 -20 -4
-20 -20 -20 -20 -20 -20 -20 -0 3 -20 0 -20 -20 -20 -20 -7 -19 -20 -20 -20 -20 -20
-20 -20 -20 -20 -20 -20 -17 -8 5 -20 -20 2 -20 -20 -20 -20 -20 -20 -20 -20 -15 -10
-20 -20 -20 -20 -5 7 -5 1 2 -20 -7 -18 -20 9 -20 -20 -20 -20 -20 -20 -18 4
-20 -20 -14 9 -4 -20 -20 3 7 -2 -20 -20 -20 0 -20 2 -20 -20 -20 -20 -14 1
-20 -19 -8 11 2 -12 1 -7 -20 -20 -20 -20 -12 9 2 -3 -20 -20 -20 -14 -3 3
3 -20 -20 -20 -11 20 -18 -20 8 -11 1 -19 -20 -16 8 -14 -17 -14 -18 -7 -3 7
-20 -20 -4 9 26 31 2 -20 -20 -20 -20 3 -20 -20 -15 8 -20 -20 -20 -20 -20 -7
-20 -20 -20 13 -5 12 8 -20 -20 -18 -20 -20 -13 -20 -5 11 -20 -20 -20 -15 -20 -20